Find Starlink 34913

NORAD ID: 65369 Int'l Des: 2025-190 Owner: SPXS Country: US Constellation: starlink operational
LEOCIRCULAR

Live Position

Loading 3D Globe...

About Starlink 34913

Description loading...

Upcoming Passes

Passes for default location (London). Set your location on the main map for personalized predictions.

Altitude History

Loading altitude history...

Two-Line Element Set

1 65369U 25190U 26104.86806567 .00008319 00000-0 29267-3 0 9995
2 65369 53.1589 0.1755 0001199 101.7569 258.3566 15.30202515 35297
Epoch: Apr 14, 2026 • Age: 10 hours

Current Status

Altitude 474.9 km
Velocity 7.63 km/s
Sub-Earth Point 11.95°N, 138.66°W
Launch Date Aug 28, 2025
Age 0.6 years
Type internet

Technical Details

Classification Payload
Mass 575.00 kg
Dry Mass 530.00 kg
Total Mass 575.00 kg
Length 0.30 m
Diameter 4.10 m
Span 29.00 m
Shape Box + pan
Manufacturer SPXS
Bus Type Starlink V2MO
Phase Status In Orbit
Owner/State SPXS/US

Most Searched